Location: Gleizolles
(44.4833°N, 6.7667°E)
Time: 16:05:51
(UTC+00:00)

Transit 2A - Pass Details

Date: 30 June 2024
Orbit: 591 x 960 km, 66.7° (Epoch: 16 July)

Event Time Altitude Azimuth Distance (km) Brightness Sun altitude
Rises 22:45:49 0° 317° (NW) 3,594 10.4 -21.4°
Reaches altitude 10° 22:48:49 10° 304° (WNW) 2,675 9.4 -21.5°
Maximum altitude 22:53:38 24° 254° (WSW) 1,890 7.9 -21.7°
Enters shadow 22:55:42 20° 227° (SW) 2,057 7.9 -21.8°
